Time,TemperatureF,DewpointF,PressureIn,WindDirection,WindDirectionDegrees,WindSpeedMPH,WindSpeedGustMPH,Humidity,HourlyPrecipIn,Conditions,Clouds,dailyrainin,SoftwareType,DateUTC
2013-08-27 00:00:00,63.9,51.5,29.84,WSW,248,0.0,0.0,64,0.00,,,0.00,WeatherCatV1.21B27,2013-08-27 07:00:00,
2013-08-27 00:05:00,63.9,51.5,29.84,WSW,248,0.0,0.0,64,0.00,,,0.00,WeatherCatV1.21B27,2013-08-27 07:05:00,
2013-08-27 00:10:00,63.9,51.5,29.84,WSW,248,0.0,0.0,64,0.00,,,0.00,WeatherCatV1.21B27,2013-08-27 07:10:00,
2013-08-27 00:15:00,63.9,51.5,29.84,WSW,248,0.0,0.0,64,0.00,,,0.00,WeatherCatV1.21B27,2013-08-27 07:15:00,
2013-08-27 00:20:00,63.9,51.5,29.84,WSW,248,0.0,0.0,64,0.00,,,0.00,WeatherCatV1.21B27,2013-08-27 07:20:00,
2013-08-27 00:25:00,63.9,51.5,29.84,WSW,248,0.0,0.0,64,0.00,,,0.00,WeatherCatV1.21B27,2013-08-27 07:25:00,
2013-08-27 00:30:00,63.9,51.5,29.84,WSW,248,0.0,0.0,64,0.00,,,0.00,WeatherCatV1.21B27,2013-08-27 07:30:00,
2013-08-27 00:35:00,60.6,50.8,29.84,WSW,248,0.0,0.0,70,0.00,,,0.00,WeatherCatV1.21B27,2013-08-27 07:35:00,
2013-08-27 00:40:00,60.6,50.8,29.84,WSW,248,0.0,0.0,70,0.00,,,0.00,WeatherCatV1.21B27,2013-08-27 07:40:00,
2013-08-27 00:45:00,60.6,50.8,29.84,WSW,248,0.0,0.0,70,0.00,,,0.00,WeatherCatV1.21B27,2013-08-27 07:45:00,
2013-08-27 00:50:00,60.6,50.8,29.84,WSW,248,0.0,0.0,70,0.00,,,0.00,WeatherCatV1.21B27,2013-08-27 07:50:00,
2013-08-27 00:55:00,60.6,50.8,29.84,WSW,248,0.0,0.0,70,0.00,,,0.00,WeatherCatV1.21B27,2013-08-27 07:55:00,
2013-08-27 01:00:00,60.6,50.8,29.84,WSW,248,0.0,0.0,70,0.00,,,0.00,WeatherCatV1.21B27,2013-08-27 08:00:00,
2013-08-27 01:05:00,60.6,50.8,29.84,WSW,248,0.0,0.0,70,0.00,,,0.00,WeatherCatV1.21B27,2013-08-27 08:05:00,
2013-08-27 01:10:00,60.6,50.8,29.84,WSW,248,0.0,0.0,70,0.00,,,0.00,WeatherCatV1.21B27,2013-08-27 08:10:00,
2013-08-27 01:15:00,60.6,50.8,29.84,WSW,248,0.0,0.0,70,0.00,,,0.00,WeatherCatV1.21B27,2013-08-27 08:15:00,
2013-08-27 01:20:00,60.6,50.8,29.84,WSW,248,0.0,0.0,70,0.00,,,0.00,WeatherCatV1.21B27,2013-08-27 08:20:00,
2013-08-27 01:25:00,60.6,50.8,29.84,WSW,248,0.0,0.0,70,0.00,,,0.00,WeatherCatV1.21B27,2013-08-27 08:25:00,
2013-08-27 01:30:00,60.6,50.8,29.84,WSW,248,0.0,0.0,70,0.00,,,0.00,WeatherCatV1.21B27,2013-08-27 08:30:00,
2013-08-27 01:35:00,60.0,50.2,29.83,WSW,248,0.0,1.0,70,0.00,,,0.00,WeatherCatV1.21B27,2013-08-27 08:35:00,
2013-08-27 01:40:00,60.0,50.2,29.83,WSW,248,0.0,1.0,70,0.00,,,0.00,WeatherCatV1.21B27,2013-08-27 08:40:00,
2013-08-27 01:45:00,60.0,50.2,29.83,WSW,248,0.0,1.0,70,0.00,,,0.00,WeatherCatV1.21B27,2013-08-27 08:45:00,
2013-08-27 01:50:00,60.0,50.2,29.83,WSW,248,0.0,1.0,70,0.00,,,0.00,WeatherCatV1.21B27,2013-08-27 08:50:00,
2013-08-27 01:55:00,60.0,50.2,29.83,WSW,248,0.0,1.0,70,0.00,,,0.00,WeatherCatV1.21B27,2013-08-27 08:55:00,
2013-08-27 02:00:00,60.0,50.2,29.83,WSW,248,0.0,1.0,70,0.00,,,0.00,WeatherCatV1.21B27,2013-08-27 09:00:00,
2013-08-27 02:05:00,60.0,50.2,29.83,WSW,248,0.0,1.0,70,0.00,,,0.00,WeatherCatV1.21B27,2013-08-27 09:05:00,
2013-08-27 02:10:00,60.0,50.2,29.83,WSW,248,0.0,1.0,70,0.00,,,0.00,WeatherCatV1.21B27,2013-08-27 09:10:00,
2013-08-27 02:15:00,60.0,50.2,29.83,WSW,248,0.0,1.0,70,0.00,,,0.00,WeatherCatV1.21B27,2013-08-27 09:15:00,
2013-08-27 02:20:00,60.0,50.2,29.83,WSW,248,0.0,1.0,70,0.00,,,0.00,WeatherCatV1.21B27,2013-08-27 09:20:00,
2013-08-27 02:25:00,60.0,50.2,29.83,WSW,248,0.0,1.0,70,0.00,,,0.00,WeatherCatV1.21B27,2013-08-27 09:25:00,
2013-08-27 02:30:00,60.0,50.2,29.83,WSW,248,0.0,1.0,70,0.00,,,0.00,WeatherCatV1.21B27,2013-08-27 09:30:00,
2013-08-27 02:35:00,58.5,50.2,29.83,WSW,248,0.0,1.0,74,0.00,,,0.00,WeatherCatV1.21B27,2013-08-27 09:35:00,
2013-08-27 02:40:00,58.5,50.2,29.83,WSW,248,0.0,1.0,74,0.00,,,0.00,WeatherCatV1.21B27,2013-08-27 09:40:00,
2013-08-27 02:45:00,58.5,50.2,29.83,WSW,248,0.0,1.0,74,0.00,,,0.00,WeatherCatV1.21B27,2013-08-27 09:45:00,
2013-08-27 02:50:00,58.5,50.2,29.83,WSW,248,0.0,1.0,74,0.00,,,0.00,WeatherCatV1.21B27,2013-08-27 09:50:00,
2013-08-27 02:55:00,58.5,50.2,29.83,WSW,248,0.0,1.0,74,0.00,,,0.00,WeatherCatV1.21B27,2013-08-27 09:55:00,
2013-08-27 03:00:00,58.5,50.2,29.83,WSW,248,0.0,1.0,74,0.00,,,0.00,WeatherCatV1.21B27,2013-08-27 10:00:00,
2013-08-27 03:05:00,58.5,50.2,29.83,WSW,248,0.0,1.0,74,0.00,,,0.00,WeatherCatV1.21B27,2013-08-27 10:05:00,
2013-08-27 03:10:00,58.5,50.2,29.83,WSW,248,0.0,1.0,74,0.00,,,0.00,WeatherCatV1.21B27,2013-08-27 10:10:00,
2013-08-27 03:15:00,58.5,50.2,29.83,WSW,248,0.0,1.0,74,0.00,,,0.00,WeatherCatV1.21B27,2013-08-27 10:15:00,
2013-08-27 03:20:00,58.5,50.2,29.83,WSW,248,0.0,1.0,74,0.00,,,0.00,WeatherCatV1.21B27,2013-08-27 10:20:00,
2013-08-27 03:25:00,58.5,50.2,29.83,WSW,248,0.0,1.0,74,0.00,,,0.00,WeatherCatV1.21B27,2013-08-27 10:25:00,
2013-08-27 03:30:00,58.5,50.2,29.83,WSW,248,0.0,1.0,74,0.00,,,0.00,WeatherCatV1.21B27,2013-08-27 10:30:00,
2013-08-27 03:35:00,58.5,49.9,29.82,WSW,248,0.0,1.0,73,0.00,,,0.00,WeatherCatV1.21B27,2013-08-27 10:35:00,
2013-08-27 03:40:00,58.5,49.9,29.82,WSW,248,0.0,1.0,73,0.00,,,0.00,WeatherCatV1.21B27,2013-08-27 10:40:00,
2013-08-27 03:45:00,58.5,49.9,29.82,WSW,248,0.0,1.0,73,0.00,,,0.00,WeatherCatV1.21B27,2013-08-27 10:45:00,
2013-08-27 03:50:00,58.5,49.9,29.82,WSW,248,0.0,1.0,73,0.00,,,0.00,WeatherCatV1.21B27,2013-08-27 10:50:00,
2013-08-27 03:55:00,58.5,49.9,29.82,WSW,248,0.0,1.0,73,0.00,,,0.00,WeatherCatV1.21B27,2013-08-27 10:55:00,
2013-08-27 04:00:00,58.5,49.9,29.82,WSW,248,0.0,1.0,73,0.00,,,0.00,WeatherCatV1.21B27,2013-08-27 11:00:00,
2013-08-27 04:05:00,58.5,49.9,29.82,WSW,248,0.0,1.0,73,0.00,,,0.00,WeatherCatV1.21B27,2013-08-27 11:05:00,
2013-08-27 04:10:00,58.5,49.9,29.82,WSW,248,0.0,1.0,73,0.00,,,0.00,WeatherCatV1.21B27,2013-08-27 11:10:00,
2013-08-27 04:15:00,58.5,49.9,29.82,WSW,248,0.0,1.0,73,0.00,,,0.00,WeatherCatV1.21B27,2013-08-27 11:15:00,
2013-08-27 04:20:00,58.5,49.9,29.82,WSW,248,0.0,1.0,73,0.00,,,0.00,WeatherCatV1.21B27,2013-08-27 11:20:00,
2013-08-27 04:25:00,58.5,49.9,29.82,WSW,248,0.0,1.0,73,0.00,,,0.00,WeatherCatV1.21B27,2013-08-27 11:25:00,
2013-08-27 04:30:00,58.5,49.9,29.82,WSW,248,0.0,1.0,73,0.00,,,0.00,WeatherCatV1.21B27,2013-08-27 11:30:00,
2013-08-27 04:35:00,57.7,50.2,29.81,WSW,248,0.0,1.0,76,0.00,,,0.00,WeatherCatV1.21B27,2013-08-27 11:35:00,
2013-08-27 04:40:00,57.7,50.2,29.81,WSW,248,0.0,1.0,76,0.00,,,0.00,WeatherCatV1.21B27,2013-08-27 11:40:00,
2013-08-27 04:45:00,57.7,50.2,29.81,WSW,248,0.0,1.0,76,0.00,,,0.00,WeatherCatV1.21B27,2013-08-27 11:45:00,
2013-08-27 04:50:00,57.7,50.2,29.81,WSW,248,0.0,1.0,76,0.00,,,0.00,WeatherCatV1.21B27,2013-08-27 11:50:00,
2013-08-27 04:55:00,57.7,50.2,29.81,WSW,248,0.0,1.0,76,0.00,,,0.00,WeatherCatV1.21B27,2013-08-27 11:55:00,
2013-08-27 05:00:00,57.7,50.2,29.81,WSW,248,0.0,1.0,76,0.00,,,0.00,WeatherCatV1.21B27,2013-08-27 12:00:00,
2013-08-27 05:05:00,57.7,50.2,29.81,WSW,248,0.0,1.0,76,0.00,,,0.00,WeatherCatV1.21B27,2013-08-27 12:05:00,
2013-08-27 05:10:00,57.7,50.2,29.81,WSW,248,0.0,1.0,76,0.00,,,0.00,WeatherCatV1.21B27,2013-08-27 12:10:00,
2013-08-27 05:15:00,57.7,50.2,29.81,WSW,248,0.0,1.0,76,0.00,,,0.00,WeatherCatV1.21B27,2013-08-27 12:15:00,
2013-08-27 05:20:00,57.7,50.2,29.81,WSW,248,0.0,1.0,76,0.00,,,0.00,WeatherCatV1.21B27,2013-08-27 12:20:00,
2013-08-27 05:25:00,57.7,50.2,29.81,WSW,248,0.0,1.0,76,0.00,,,0.00,WeatherCatV1.21B27,2013-08-27 12:25:00,
2013-08-27 05:30:00,57.7,50.2,29.81,WSW,248,0.0,1.0,76,0.00,,,0.00,WeatherCatV1.21B27,2013-08-27 12:30:00,
2013-08-27 05:35:00,58.7,50.4,29.81,North,0,0.0,1.0,74,0.00,,,0.00,WeatherCatV1.21B27,2013-08-27 12:35:00,
2013-08-27 05:40:00,58.7,50.4,29.81,North,0,0.0,1.0,74,0.00,,,0.00,WeatherCatV1.21B27,2013-08-27 12:40:00,
2013-08-27 05:45:00,58.7,50.4,29.81,North,0,0.0,1.0,74,0.00,,,0.00,WeatherCatV1.21B27,2013-08-27 12:45:00,
2013-08-27 05:50:00,58.7,50.4,29.81,North,0,0.0,1.0,74,0.00,,,0.00,WeatherCatV1.21B27,2013-08-27 12:50:00,
2013-08-27 05:55:00,58.7,50.4,29.81,North,0,0.0,1.0,74,0.00,,,0.00,WeatherCatV1.21B27,2013-08-27 12:55:00,
2013-08-27 06:00:00,58.7,50.4,29.81,North,0,0.0,1.0,74,0.00,,,0.00,WeatherCatV1.21B27,2013-08-27 13:00:00,
2013-08-27 06:05:00,58.7,50.4,29.81,North,0,0.0,1.0,74,0.00,,,0.00,WeatherCatV1.21B27,2013-08-27 13:05:00,
2013-08-27 06:10:00,58.7,50.4,29.81,North,0,0.0,1.0,74,0.00,,,0.00,WeatherCatV1.21B27,2013-08-27 13:10:00,
2013-08-27 06:15:00,58.7,50.4,29.81,North,0,0.0,1.0,74,0.00,,,0.00,WeatherCatV1.21B27,2013-08-27 13:15:00,
2013-08-27 06:20:00,58.7,50.4,29.81,North,0,0.0,1.0,74,0.00,,,0.00,WeatherCatV1.21B27,2013-08-27 13:20:00,
2013-08-27 06:25:00,58.7,50.4,29.81,North,0,0.0,1.0,74,0.00,,,0.00,WeatherCatV1.21B27,2013-08-27 13:25:00,
2013-08-27 06:30:00,58.7,50.4,29.81,North,0,0.0,1.0,74,0.00,,,0.00,WeatherCatV1.21B27,2013-08-27 13:30:00,
2013-08-27 06:35:00,57.7,50.2,29.81,North,0,0.0,1.0,76,0.00,,,0.00,WeatherCatV1.21B27,2013-08-27 13:35:00,
2013-08-27 06:40:00,57.7,50.2,29.81,North,0,0.0,1.0,76,0.00,,,0.00,WeatherCatV1.21B27,2013-08-27 13:40:00,
2013-08-27 06:45:00,57.7,50.2,29.81,North,0,0.0,1.0,76,0.00,,,0.00,WeatherCatV1.21B27,2013-08-27 13:45:00,
2013-08-27 06:50:00,57.7,50.2,29.81,North,0,0.0,1.0,76,0.00,,,0.00,WeatherCatV1.21B27,2013-08-27 13:50:00,
2013-08-27 06:55:00,57.7,50.2,29.81,North,0,0.0,1.0,76,0.00,,,0.00,WeatherCatV1.21B27,2013-08-27 13:55:00,
2013-08-27 07:00:00,57.7,50.2,29.81,North,0,0.0,1.0,76,0.00,,,0.00,WeatherCatV1.21B27,2013-08-27 14:00:00,
2013-08-27 07:05:00,57.7,50.2,29.81,North,0,0.0,1.0,76,0.00,,,0.00,WeatherCatV1.21B27,2013-08-27 14:05:00,
2013-08-27 07:10:00,57.7,50.2,29.81,North,0,0.0,1.0,76,0.00,,,0.00,WeatherCatV1.21B27,2013-08-27 14:10:00,
2013-08-27 07:15:00,57.7,50.2,29.81,North,0,0.0,1.0,76,0.00,,,0.00,WeatherCatV1.21B27,2013-08-27 14:15:00,
2013-08-27 07:20:00,57.7,50.2,29.81,North,0,0.0,1.0,76,0.00,,,0.00,WeatherCatV1.21B27,2013-08-27 14:20:00,
2013-08-27 07:25:00,57.7,50.2,29.81,North,0,0.0,1.0,76,0.00,,,0.00,WeatherCatV1.21B27,2013-08-27 14:25:00,
2013-08-27 07:30:00,57.7,50.2,29.81,North,0,0.0,1.0,76,0.00,,,0.00,WeatherCatV1.21B27,2013-08-27 14:30:00,
2013-08-27 07:35:00,58.2,49.6,29.82,North,0,0.0,1.0,73,0.00,,,0.00,WeatherCatV1.21B27,2013-08-27 14:35:00,
2013-08-27 07:40:00,58.2,49.6,29.82,North,0,0.0,1.0,73,0.00,,,0.00,WeatherCatV1.21B27,2013-08-27 14:40:00,
2013-08-27 07:45:00,58.2,49.6,29.82,North,0,0.0,1.0,73,0.00,,,0.00,WeatherCatV1.21B27,2013-08-27 14:45:00,
2013-08-27 07:50:00,58.2,49.6,29.82,North,0,0.0,1.0,73,0.00,,,0.00,WeatherCatV1.21B27,2013-08-27 14:50:00,
2013-08-27 07:55:00,58.2,49.6,29.82,North,0,0.0,1.0,73,0.00,,,0.00,WeatherCatV1.21B27,2013-08-27 14:55:00,
2013-08-27 08:00:00,58.2,49.6,29.82,North,0,0.0,1.0,73,0.00,,,0.00,WeatherCatV1.21B27,2013-08-27 15:00:00,
2013-08-27 08:05:00,58.2,49.6,29.82,North,0,0.0,1.0,73,0.00,,,0.00,WeatherCatV1.21B27,2013-08-27 15:05:00,
2013-08-27 08:10:00,58.2,49.6,29.82,North,0,0.0,1.0,73,0.00,,,0.00,WeatherCatV1.21B27,2013-08-27 15:10:00,
2013-08-27 08:15:00,58.2,49.6,29.82,North,0,0.0,1.0,73,0.00,,,0.00,WeatherCatV1.21B27,2013-08-27 15:15:00,
2013-08-27 08:20:00,58.2,49.6,29.82,North,0,0.0,1.0,73,0.00,,,0.00,WeatherCatV1.21B27,2013-08-27 15:20:00,
2013-08-27 08:25:00,58.2,49.6,29.82,North,0,0.0,1.0,73,0.00,,,0.00,WeatherCatV1.21B27,2013-08-27 15:25:00,
2013-08-27 08:30:00,58.2,49.6,29.82,North,0,0.0,1.0,73,0.00,,,0.00,WeatherCatV1.21B27,2013-08-27 15:30:00,
2013-08-27 08:35:00,61.2,51.7,29.81,North,0,0.0,1.0,71,0.00,,,0.00,WeatherCatV1.21B27,2013-08-27 15:35:00,
2013-08-27 08:40:00,61.2,51.7,29.81,North,0,0.0,1.0,71,0.00,,,0.00,WeatherCatV1.21B27,2013-08-27 15:40:00,
2013-08-27 08:45:00,61.2,51.7,29.81,North,0,0.0,1.0,71,0.00,,,0.00,WeatherCatV1.21B27,2013-08-27 15:45:00,
2013-08-27 08:50:00,61.2,51.7,29.81,North,0,0.0,1.0,71,0.00,,,0.00,WeatherCatV1.21B27,2013-08-27 15:50:00,
2013-08-27 08:55:00,61.2,51.7,29.81,North,0,0.0,1.0,71,0.00,,,0.00,WeatherCatV1.21B27,2013-08-27 15:55:00,
2013-08-27 09:00:00,61.2,51.7,29.81,North,0,0.0,1.0,71,0.00,,,0.00,WeatherCatV1.21B27,2013-08-27 16:00:00,
2013-08-27 09:05:00,61.2,51.7,29.81,North,0,0.0,1.0,71,0.00,,,0.00,WeatherCatV1.21B27,2013-08-27 16:05:00,
2013-08-27 09:10:00,61.2,51.7,29.81,North,0,0.0,1.0,71,0.00,,,0.00,WeatherCatV1.21B27,2013-08-27 16:10:00,
2013-08-27 09:15:00,61.2,51.7,29.81,North,0,0.0,1.0,71,0.00,,,0.00,WeatherCatV1.21B27,2013-08-27 16:15:00,
2013-08-27 09:20:00,61.2,51.7,29.81,North,0,0.0,1.0,71,0.00,,,0.00,WeatherCatV1.21B27,2013-08-27 16:20:00,
2013-08-27 09:25:00,61.2,51.7,29.81,North,0,0.0,1.0,71,0.00,,,0.00,WeatherCatV1.21B27,2013-08-27 16:25:00,
2013-08-27 09:30:00,61.2,51.7,29.81,North,0,0.0,1.0,71,0.00,,,0.00,WeatherCatV1.21B27,2013-08-27 16:30:00,
2013-08-27 09:35:00,67.8,54.3,29.81,North,0,0.0,0.0,62,0.00,,,0.00,WeatherCatV1.21B27,2013-08-27 16:35:00,
2013-08-27 09:40:00,67.8,54.3,29.81,North,0,0.0,0.0,62,0.00,,,0.00,WeatherCatV1.21B27,2013-08-27 16:40:00,
2013-08-27 09:45:00,67.8,54.3,29.81,North,0,0.0,0.0,62,0.00,,,0.00,WeatherCatV1.21B27,2013-08-27 16:45:00,
2013-08-27 09:50:00,67.8,54.3,29.81,North,0,0.0,0.0,62,0.00,,,0.00,WeatherCatV1.21B27,2013-08-27 16:50:00,
2013-08-27 09:55:00,67.8,54.3,29.81,North,0,0.0,0.0,62,0.00,,,0.00,WeatherCatV1.21B27,2013-08-27 16:55:00,
2013-08-27 10:00:00,67.8,54.3,29.81,North,0,0.0,0.0,62,0.00,,,0.00,WeatherCatV1.21B27,2013-08-27 17:00:00,
2013-08-27 10:05:00,67.8,54.3,29.81,North,0,0.0,0.0,62,0.00,,,0.00,WeatherCatV1.21B27,2013-08-27 17:05:00,
2013-08-27 10:10:00,67.8,54.3,29.81,North,0,0.0,0.0,62,0.00,,,0.00,WeatherCatV1.21B27,2013-08-27 17:10:00,
2013-08-27 10:15:00,67.8,54.3,29.81,North,0,0.0,0.0,62,0.00,,,0.00,WeatherCatV1.21B27,2013-08-27 17:15:00,
2013-08-27 10:20:00,67.8,54.3,29.81,North,0,0.0,0.0,62,0.00,,,0.00,WeatherCatV1.21B27,2013-08-27 17:20:00,
2013-08-27 10:25:00,67.8,54.3,29.81,North,0,0.0,0.0,62,0.00,,,0.00,WeatherCatV1.21B27,2013-08-27 17:25:00,
2013-08-27 10:30:00,67.8,54.3,29.81,North,0,0.0,0.0,62,0.00,,,0.00,WeatherCatV1.21B27,2013-08-27 17:30:00,
2013-08-27 10:35:00,74.3,50.3,29.80,North,0,0.0,1.0,43,0.00,,,0.00,WeatherCatV1.21B27,2013-08-27 17:35:00,
2013-08-27 10:40:00,74.3,50.3,29.80,North,0,0.0,1.0,43,0.00,,,0.00,WeatherCatV1.21B27,2013-08-27 17:40:00,
2013-08-27 10:45:00,74.3,50.3,29.80,North,0,0.0,1.0,43,0.00,,,0.00,WeatherCatV1.21B27,2013-08-27 17:45:00,
2013-08-27 10:50:00,74.3,50.3,29.80,North,0,0.0,1.0,43,0.00,,,0.00,WeatherCatV1.21B27,2013-08-27 17:50:00,
2013-08-27 10:55:00,74.3,50.3,29.80,North,0,0.0,1.0,43,0.00,,,0.00,WeatherCatV1.21B27,2013-08-27 17:55:00,
2013-08-27 11:00:00,74.3,50.3,29.80,North,0,0.0,1.0,43,0.00,,,0.00,WeatherCatV1.21B27,2013-08-27 18:00:00,
2013-08-27 11:05:00,74.3,50.3,29.80,North,0,0.0,1.0,43,0.00,,,0.00,WeatherCatV1.21B27,2013-08-27 18:05:00,
2013-08-27 11:10:00,74.3,50.3,29.80,North,0,0.0,1.0,43,0.00,,,0.00,WeatherCatV1.21B27,2013-08-27 18:10:00,
2013-08-27 11:15:00,74.3,50.3,29.80,North,0,0.0,1.0,43,0.00,,,0.00,WeatherCatV1.21B27,2013-08-27 18:15:00,
2013-08-27 11:20:00,74.3,50.3,29.80,North,0,0.0,1.0,43,0.00,,,0.00,WeatherCatV1.21B27,2013-08-27 18:20:00,
2013-08-27 11:25:00,74.3,50.3,29.80,North,0,0.0,1.0,43,0.00,,,0.00,WeatherCatV1.21B27,2013-08-27 18:25:00,
2013-08-27 11:30:00,74.3,50.3,29.80,North,0,0.0,1.0,43,0.00,,,0.00,WeatherCatV1.21B27,2013-08-27 18:30:00,
2013-08-27 11:35:00,80.1,49.2,29.80,West,270,0.0,2.0,34,0.00,,,0.00,WeatherCatV1.21B27,2013-08-27 18:35:00,
2013-08-27 11:40:00,80.1,49.2,29.80,West,270,0.0,2.0,34,0.00,,,0.00,WeatherCatV1.21B27,2013-08-27 18:40:00,
2013-08-27 11:45:00,80.1,49.2,29.80,West,270,0.0,2.0,34,0.00,,,0.00,WeatherCatV1.21B27,2013-08-27 18:45:00,
2013-08-27 11:50:00,80.1,49.2,29.80,West,270,0.0,2.0,34,0.00,,,0.00,WeatherCatV1.21B27,2013-08-27 18:50:00,
2013-08-27 11:55:00,80.1,49.2,29.80,West,270,0.0,2.0,34,0.00,,,0.00,WeatherCatV1.21B27,2013-08-27 18:55:00,
2013-08-27 12:00:00,80.1,49.2,29.80,West,270,0.0,2.0,34,0.00,,,0.00,WeatherCatV1.21B27,2013-08-27 19:00:00,
2013-08-27 12:05:00,80.1,49.2,29.80,West,270,0.0,2.0,34,0.00,,,0.00,WeatherCatV1.21B27,2013-08-27 19:05:00,
2013-08-27 12:10:00,80.1,49.2,29.80,West,270,0.0,2.0,34,0.00,,,0.00,WeatherCatV1.21B27,2013-08-27 19:10:00,
2013-08-27 12:15:00,80.1,49.2,29.80,West,270,0.0,2.0,34,0.00,,,0.00,WeatherCatV1.21B27,2013-08-27 19:15:00,
2013-08-27 12:20:00,80.1,49.2,29.80,West,270,0.0,2.0,34,0.00,,,0.00,WeatherCatV1.21B27,2013-08-27 19:20:00,
2013-08-27 12:25:00,80.1,49.2,29.80,West,270,0.0,2.0,34,0.00,,,0.00,WeatherCatV1.21B27,2013-08-27 19:25:00,
2013-08-27 12:30:00,80.1,49.2,29.80,West,270,0.0,2.0,34,0.00,,,0.00,WeatherCatV1.21B27,2013-08-27 19:30:00,
2013-08-27 12:35:00,82.9,50.0,29.80,West,270,1.0,4.0,32,0.00,,,0.00,WeatherCatV1.21B27,2013-08-27 19:35:00,
2013-08-27 12:40:00,82.9,50.0,29.80,West,270,1.0,4.0,32,0.00,,,0.00,WeatherCatV1.21B27,2013-08-27 19:40:00,
2013-08-27 12:45:00,82.9,50.0,29.80,West,270,1.0,4.0,32,0.00,,,0.00,WeatherCatV1.21B27,2013-08-27 19:45:00,
2013-08-27 12:50:00,82.9,50.0,29.80,West,270,1.0,4.0,32,0.00,,,0.00,WeatherCatV1.21B27,2013-08-27 19:50:00,
2013-08-27 12:55:00,82.9,50.0,29.80,West,270,1.0,4.0,32,0.00,,,0.00,WeatherCatV1.21B27,2013-08-27 19:55:00,
2013-08-27 13:00:00,82.9,50.0,29.80,West,270,1.0,4.0,32,0.00,,,0.00,WeatherCatV1.21B27,2013-08-27 20:00:00,
2013-08-27 13:05:00,82.9,50.0,29.80,West,270,1.0,4.0,32,0.00,,,0.00,WeatherCatV1.21B27,2013-08-27 20:05:00,
2013-08-27 13:10:00,82.9,50.0,29.80,West,270,1.0,4.0,32,0.00,,,0.00,WeatherCatV1.21B27,2013-08-27 20:10:00,
2013-08-27 13:15:00,82.9,50.0,29.80,West,270,1.0,4.0,32,0.00,,,0.00,WeatherCatV1.21B27,2013-08-27 20:15:00,
2013-08-27 13:20:00,82.9,50.0,29.80,West,270,1.0,4.0,32,0.00,,,0.00,WeatherCatV1.21B27,2013-08-27 20:20:00,
2013-08-27 13:25:00,82.9,50.0,29.80,West,270,1.0,4.0,32,0.00,,,0.00,WeatherCatV1.21B27,2013-08-27 20:25:00,
2013-08-27 13:30:00,82.9,50.0,29.80,West,270,1.0,4.0,32,0.00,,,0.00,WeatherCatV1.21B27,2013-08-27 20:30:00,
2013-08-27 13:35:00,84.2,48.5,29.79,West,270,2.0,5.0,29,0.00,,,0.00,WeatherCatV1.21B27,2013-08-27 20:35:00,
2013-08-27 13:40:00,84.2,48.5,29.79,West,270,2.0,5.0,29,0.00,,,0.00,WeatherCatV1.21B27,2013-08-27 20:40:00,
2013-08-27 13:45:00,84.2,48.5,29.79,West,270,2.0,5.0,29,0.00,,,0.00,WeatherCatV1.21B27,2013-08-27 20:45:00,
2013-08-27 13:50:00,84.2,48.5,29.79,West,270,2.0,5.0,29,0.00,,,0.00,WeatherCatV1.21B27,2013-08-27 20:50:00,
2013-08-27 13:55:00,84.2,48.5,29.79,West,270,2.0,5.0,29,0.00,,,0.00,WeatherCatV1.21B27,2013-08-27 20:55:00,
2013-08-27 14:00:00,84.2,48.5,29.79,West,270,2.0,5.0,29,0.00,,,0.00,WeatherCatV1.21B27,2013-08-27 21:00:00,
2013-08-27 14:05:00,84.2,48.5,29.79,West,270,2.0,5.0,29,0.00,,,0.00,WeatherCatV1.21B27,2013-08-27 21:05:00,
2013-08-27 14:10:00,84.2,48.5,29.79,West,270,2.0,5.0,29,0.00,,,0.00,WeatherCatV1.21B27,2013-08-27 21:10:00,
2013-08-27 14:15:00,84.2,48.5,29.79,West,270,2.0,5.0,29,0.00,,,0.00,WeatherCatV1.21B27,2013-08-27 21:15:00,
2013-08-27 14:20:00,84.2,48.5,29.79,West,270,2.0,5.0,29,0.00,,,0.00,WeatherCatV1.21B27,2013-08-27 21:20:00,
2013-08-27 14:25:00,84.2,48.5,29.79,West,270,2.0,5.0,29,0.00,,,0.00,WeatherCatV1.21B27,2013-08-27 21:25:00,
2013-08-27 14:30:00,84.2,48.5,29.79,West,270,2.0,5.0,29,0.00,,,0.00,WeatherCatV1.21B27,2013-08-27 21:30:00,
2013-08-27 14:35:00,86.1,48.2,29.78,WSW,248,2.0,7.0,27,0.00,,,0.00,WeatherCatV1.21B27,2013-08-27 21:35:00,
2013-08-27 14:40:00,86.1,48.2,29.78,WSW,248,2.0,7.0,27,0.00,,,0.00,WeatherCatV1.21B27,2013-08-27 21:40:00,
2013-08-27 14:45:00,86.1,48.2,29.78,WSW,248,2.0,7.0,27,0.00,,,0.00,WeatherCatV1.21B27,2013-08-27 21:45:00,
2013-08-27 14:50:00,86.1,48.2,29.78,WSW,248,2.0,7.0,27,0.00,,,0.00,WeatherCatV1.21B27,2013-08-27 21:50:00,
2013-08-27 14:55:00,86.1,48.2,29.78,WSW,248,2.0,7.0,27,0.00,,,0.00,WeatherCatV1.21B27,2013-08-27 21:55:00,
2013-08-27 15:00:00,86.1,48.2,29.78,WSW,248,2.0,7.0,27,0.00,,,0.00,WeatherCatV1.21B27,2013-08-27 22:00:00,
2013-08-27 15:05:00,86.1,48.2,29.78,WSW,248,2.0,7.0,27,0.00,,,0.00,WeatherCatV1.21B27,2013-08-27 22:05:00,
2013-08-27 15:10:00,86.1,48.2,29.78,WSW,248,2.0,7.0,27,0.00,,,0.00,WeatherCatV1.21B27,2013-08-27 22:10:00,
2013-08-27 15:15:00,86.1,48.2,29.78,WSW,248,2.0,7.0,27,0.00,,,0.00,WeatherCatV1.21B27,2013-08-27 22:15:00,
2013-08-27 15:20:00,86.1,48.2,29.78,WSW,248,2.0,7.0,27,0.00,,,0.00,WeatherCatV1.21B27,2013-08-27 22:20:00,
2013-08-27 15:25:00,86.1,48.2,29.78,WSW,248,2.0,7.0,27,0.00,,,0.00,WeatherCatV1.21B27,2013-08-27 22:25:00,
2013-08-27 15:30:00,86.1,48.2,29.78,WSW,248,2.0,7.0,27,0.00,,,0.00,WeatherCatV1.21B27,2013-08-27 22:30:00,
2013-08-27 15:35:00,83.9,47.3,29.76,West,270,3.0,6.0,28,0.00,,,0.00,WeatherCatV1.21B27,2013-08-27 22:35:00,
2013-08-27 15:40:00,83.9,47.3,29.76,West,270,3.0,6.0,28,0.00,,,0.00,WeatherCatV1.21B27,2013-08-27 22:40:00,
2013-08-27 15:45:00,83.9,47.3,29.76,West,270,3.0,6.0,28,0.00,,,0.00,WeatherCatV1.21B27,2013-08-27 22:45:00,
2013-08-27 15:50:00,83.9,47.3,29.76,West,270,3.0,6.0,28,0.00,,,0.00,WeatherCatV1.21B27,2013-08-27 22:50:00,
2013-08-27 15:55:00,83.9,47.3,29.76,West,270,3.0,6.0,28,0.00,,,0.00,WeatherCatV1.21B27,2013-08-27 22:55:00,
2013-08-27 16:00:00,83.9,47.3,29.76,West,270,3.0,6.0,28,0.00,,,0.00,WeatherCatV1.21B27,2013-08-27 23:00:00,
2013-08-27 16:05:00,83.9,47.3,29.76,West,270,3.0,6.0,28,0.00,,,0.00,WeatherCatV1.21B27,2013-08-27 23:05:00,
2013-08-27 16:10:00,83.9,47.3,29.76,West,270,3.0,6.0,28,0.00,,,0.00,WeatherCatV1.21B27,2013-08-27 23:10:00,
2013-08-27 16:15:00,83.9,47.3,29.76,West,270,3.0,6.0,28,0.00,,,0.00,WeatherCatV1.21B27,2013-08-27 23:15:00,
2013-08-27 16:20:00,83.9,47.3,29.76,West,270,3.0,6.0,28,0.00,,,0.00,WeatherCatV1.21B27,2013-08-27 23:20:00,
2013-08-27 16:25:00,83.9,47.3,29.76,West,270,3.0,6.0,28,0.00,,,0.00,WeatherCatV1.21B27,2013-08-27 23:25:00,
2013-08-27 16:30:00,83.9,47.3,29.76,West,270,3.0,6.0,28,0.00,,,0.00,WeatherCatV1.21B27,2013-08-27 23:30:00,
2013-08-27 16:35:00,85.2,45.4,29.75,West,270,2.0,5.0,25,0.00,,,0.00,WeatherCatV1.21B27,2013-08-27 23:35:00,
2013-08-27 16:40:00,85.2,45.4,29.75,West,270,2.0,5.0,25,0.00,,,0.00,WeatherCatV1.21B27,2013-08-27 23:40:00,
2013-08-27 16:45:00,85.2,45.4,29.75,West,270,2.0,5.0,25,0.00,,,0.00,WeatherCatV1.21B27,2013-08-27 23:45:00,
2013-08-27 16:50:00,85.2,45.4,29.75,West,270,2.0,5.0,25,0.00,,,0.00,WeatherCatV1.21B27,2013-08-27 23:50:00,
2013-08-27 16:55:00,85.2,45.4,29.75,West,270,2.0,5.0,25,0.00,,,0.00,WeatherCatV1.21B27,2013-08-27 23:55:00,
2013-08-27 17:00:00,85.2,45.4,29.75,West,270,2.0,5.0,25,0.00,,,0.00,WeatherCatV1.21B27,2013-08-28 00:00:00,
2013-08-27 17:05:00,85.2,45.4,29.75,West,270,2.0,5.0,25,0.00,,,0.00,WeatherCatV1.21B27,2013-08-28 00:05:00,
2013-08-27 17:10:00,85.2,45.4,29.75,West,270,2.0,5.0,25,0.00,,,0.00,WeatherCatV1.21B27,2013-08-28 00:10:00,
2013-08-27 17:15:00,85.2,45.4,29.75,West,270,2.0,5.0,25,0.00,,,0.00,WeatherCatV1.21B27,2013-08-28 00:15:00,
2013-08-27 17:20:00,85.2,45.4,29.75,West,270,2.0,5.0,25,0.00,,,0.00,WeatherCatV1.21B27,2013-08-28 00:20:00,
2013-08-27 17:25:00,85.2,45.4,29.75,West,270,2.0,5.0,25,0.00,,,0.00,WeatherCatV1.21B27,2013-08-28 00:25:00,
2013-08-27 17:30:00,85.2,45.4,29.75,West,270,2.0,5.0,25,0.00,,,0.00,WeatherCatV1.21B27,2013-08-28 00:30:00,
2013-08-27 17:35:00,84.5,44.8,29.75,West,270,2.0,5.0,25,0.00,,,0.00,WeatherCatV1.21B27,2013-08-28 00:35:00,
2013-08-27 17:40:00,84.5,44.8,29.75,West,270,2.0,5.0,25,0.00,,,0.00,WeatherCatV1.21B27,2013-08-28 00:40:00,
2013-08-27 17:45:00,84.5,44.8,29.75,West,270,2.0,5.0,25,0.00,,,0.00,WeatherCatV1.21B27,2013-08-28 00:45:00,
2013-08-27 17:50:00,84.5,44.8,29.75,West,270,2.0,5.0,25,0.00,,,0.00,WeatherCatV1.21B27,2013-08-28 00:50:00,
2013-08-27 17:55:00,84.5,44.8,29.75,West,270,2.0,5.0,25,0.00,,,0.00,WeatherCatV1.21B27,2013-08-28 00:55:00,
2013-08-27 18:00:00,84.5,44.8,29.75,West,270,2.0,5.0,25,0.00,,,0.00,WeatherCatV1.21B27,2013-08-28 01:00:00,
2013-08-27 18:05:00,84.5,44.8,29.75,West,270,2.0,5.0,25,0.00,,,0.00,WeatherCatV1.21B27,2013-08-28 01:05:00,
2013-08-27 18:10:00,84.5,44.8,29.75,West,270,2.0,5.0,25,0.00,,,0.00,WeatherCatV1.21B27,2013-08-28 01:10:00,
2013-08-27 18:15:00,84.5,44.8,29.75,West,270,2.0,5.0,25,0.00,,,0.00,WeatherCatV1.21B27,2013-08-28 01:15:00,
2013-08-27 18:20:00,84.5,44.8,29.75,West,270,2.0,5.0,25,0.00,,,0.00,WeatherCatV1.21B27,2013-08-28 01:20:00,
2013-08-27 18:25:00,84.5,44.8,29.75,West,270,2.0,5.0,25,0.00,,,0.00,WeatherCatV1.21B27,2013-08-28 01:25:00,
2013-08-27 18:30:00,84.5,44.8,29.75,West,270,2.0,5.0,25,0.00,,,0.00,WeatherCatV1.21B27,2013-08-28 01:30:00,
2013-08-27 18:35:00,83.6,47.0,29.74,West,270,1.0,4.0,28,0.00,,,0.00,WeatherCatV1.21B27,2013-08-28 01:35:00,
2013-08-27 18:40:00,83.6,47.0,29.74,West,270,1.0,4.0,28,0.00,,,0.00,WeatherCatV1.21B27,2013-08-28 01:40:00,
2013-08-27 18:45:00,83.6,47.0,29.74,West,270,1.0,4.0,28,0.00,,,0.00,WeatherCatV1.21B27,2013-08-28 01:45:00,
2013-08-27 18:50:00,83.6,47.0,29.74,West,270,1.0,4.0,28,0.00,,,0.00,WeatherCatV1.21B27,2013-08-28 01:50:00,
2013-08-27 18:55:00,83.6,47.0,29.74,West,270,1.0,4.0,28,0.00,,,0.00,WeatherCatV1.21B27,2013-08-28 01:55:00,
2013-08-27 19:00:00,83.6,47.0,29.74,West,270,1.0,4.0,28,0.00,,,0.00,WeatherCatV1.21B27,2013-08-28 02:00:00,
2013-08-27 19:05:00,83.6,47.0,29.74,West,270,1.0,4.0,28,0.00,,,0.00,WeatherCatV1.21B27,2013-08-28 02:05:00,
2013-08-27 19:10:00,83.6,47.0,29.74,West,270,1.0,4.0,28,0.00,,,0.00,WeatherCatV1.21B27,2013-08-28 02:10:00,
2013-08-27 19:15:00,83.6,47.0,29.74,West,270,1.0,4.0,28,0.00,,,0.00,WeatherCatV1.21B27,2013-08-28 02:15:00,
2013-08-27 19:20:00,83.6,47.0,29.74,West,270,1.0,4.0,28,0.00,,,0.00,WeatherCatV1.21B27,2013-08-28 02:20:00,
2013-08-27 19:25:00,83.6,47.0,29.74,West,270,1.0,4.0,28,0.00,,,0.00,WeatherCatV1.21B27,2013-08-28 02:25:00,
2013-08-27 19:30:00,83.6,47.0,29.74,West,270,1.0,4.0,28,0.00,,,0.00,WeatherCatV1.21B27,2013-08-28 02:30:00,
2013-08-27 19:35:00,79.3,46.9,29.74,WSW,238,0.0,0.0,32,0.00,,,0.00,WeatherCatV1.21B27,2013-08-28 02:35:00,
2013-08-27 19:40:00,78.6,46.2,29.74,WSW,237,0.0,0.0,32,0.00,,,0.00,WeatherCatV1.21B27,2013-08-28 02:40:00,
2013-08-27 19:45:00,78.1,46.6,29.74,WSW,237,0.0,0.0,33,0.00,,,0.00,WeatherCatV1.21B27,2013-08-28 02:45:00,
2013-08-27 19:50:00,77.7,47.1,29.74,WSW,237,0.0,0.0,34,0.00,,,0.00,WeatherCatV1.21B27,2013-08-28 02:50:00,
2013-08-27 19:55:00,77.4,46.8,29.74,WSW,237,0.0,0.0,34,0.00,,,0.00,WeatherCatV1.21B27,2013-08-28 02:55:00,
2013-08-27 20:08:00,77.0,47.2,29.74,WSW,237,0.0,0.0,35,0.00,,,0.00,WeatherCatV1.21B27,2013-08-28 03:08:00,
2013-08-27 20:13:00,76.1,46.4,29.74,WSW,238,0.0,0.0,35,0.00,,,0.00,WeatherCatV1.21B27,2013-08-28 03:13:00,
2013-08-27 20:18:00,75.8,49.7,29.74,WSW,238,0.0,1.0,40,0.00,,,0.00,WeatherCatV1.21B27,2013-08-28 03:18:00,
2013-08-27 20:23:00,75.1,49.8,29.75,WSW,238,0.0,0.0,41,0.00,,,0.00,WeatherCatV1.21B27,2013-08-28 03:23:00,
2013-08-27 20:28:00,74.9,48.3,29.75,WSW,238,0.0,0.0,39,0.00,,,0.00,WeatherCatV1.21B27,2013-08-28 03:28:00,
2013-08-27 20:33:00,74.8,49.5,29.75,WSW,238,0.0,0.0,41,0.00,,,0.00,WeatherCatV1.21B27,2013-08-28 03:33:00,
2013-08-27 20:38:00,74.3,49.7,29.75,WSW,238,0.0,0.0,42,0.00,,,0.00,WeatherCatV1.21B27,2013-08-28 03:38:00,
2013-08-27 20:43:00,73.8,49.9,29.75,WSW,238,0.0,0.0,43,0.00,,,0.00,WeatherCatV1.21B27,2013-08-28 03:43:00,
2013-08-27 20:48:00,73.5,50.8,29.75,WSW,238,0.0,0.0,45,0.00,,,0.00,WeatherCatV1.21B27,2013-08-28 03:48:00,
2013-08-27 20:53:00,73.0,50.4,29.75,WSW,237,0.0,0.0,45,0.00,,,0.00,WeatherCatV1.21B27,2013-08-28 03:53:00,
2013-08-27 20:58:00,72.6,51.2,29.75,WSW,237,0.0,0.0,47,0.00,,,0.00,WeatherCatV1.21B27,2013-08-28 03:58:00,
2013-08-27 21:01:00,72.4,51.6,29.75,WSW,238,0.0,0.0,48,0.00,,,0.00,WeatherCatV1.21B27,2013-08-28 04:01:00,
2013-08-27 21:06:00,71.9,51.1,29.75,WSW,238,0.0,0.0,48,0.00,,,0.00,WeatherCatV1.21B27,2013-08-28 04:06:00,
2013-08-27 21:08:00,71.8,51.6,29.75,WSW,237,0.0,0.0,49,0.00,,,0.00,WeatherCatV1.21B27,2013-08-28 04:08:00,
2013-08-27 21:09:00,71.8,51.6,29.75,WSW,237,0.0,0.0,49,0.00,,,0.00,WeatherCatV1.21B27,2013-08-28 04:09:00,
2013-08-27 21:14:00,71.6,50.9,29.75,WSW,238,0.0,0.0,48,0.00,,,0.00,WeatherCatV1.21B27,2013-08-28 04:14:00,
2013-08-27 21:18:00,71.6,50.9,29.75,WSW,238,0.0,0.0,48,0.00,,,0.00,WeatherCatV1.21B27,2013-08-28 04:18:00,
2013-08-27 21:23:00,71.4,51.2,29.75,WSW,237,0.0,0.0,49,0.00,,,0.00,WeatherCatV1.21B27,2013-08-28 04:23:00,
2013-08-27 21:28:00,71.4,51.2,29.76,WSW,238,0.0,0.0,49,0.00,,,0.00,WeatherCatV1.21B27,2013-08-28 04:28:00,
2013-08-27 21:33:00,71.7,49.2,29.76,WSW,238,0.0,0.0,45,0.00,,,0.00,WeatherCatV1.21B27,2013-08-28 04:33:00,
2013-08-27 21:38:00,72.1,50.7,29.76,WSW,238,0.0,0.0,47,0.00,,,0.00,WeatherCatV1.21B27,2013-08-28 04:38:00,
2013-08-27 21:43:00,71.9,50.0,29.76,WSW,238,0.0,0.0,46,0.00,,,0.00,WeatherCatV1.21B27,2013-08-28 04:43:00,
2013-08-27 21:48:00,71.9,48.2,29.76,WSW,238,0.0,1.0,43,0.00,,,0.00,WeatherCatV1.21B27,2013-08-28 04:48:00,
2013-08-27 21:53:00,72.1,48.4,29.76,WSW,238,0.0,1.0,43,0.00,,,0.00,WeatherCatV1.21B27,2013-08-28 04:53:00,
2013-08-27 21:58:00,72.3,48.5,29.76,WSW,238,0.0,0.0,43,0.00,,,0.00,WeatherCatV1.21B27,2013-08-28 04:58:00,
2013-08-27 22:03:00,72.5,48.1,29.76,WSW,238,0.0,0.0,42,0.00,,,0.00,WeatherCatV1.21B27,2013-08-28 05:03:00,
2013-08-27 22:08:00,72.4,48.0,29.76,WSW,238,0.0,0.0,42,0.00,,,0.00,WeatherCatV1.21B27,2013-08-28 05:08:00,
2013-08-27 22:13:00,72.3,48.5,29.76,WSW,238,0.0,0.0,43,0.00,,,0.00,WeatherCatV1.21B27,2013-08-28 05:13:00,
2013-08-27 22:18:00,72.1,49.0,29.76,WSW,238,0.0,0.0,44,0.00,,,0.00,WeatherCatV1.21B27,2013-08-28 05:18:00,
2013-08-27 22:23:00,71.8,49.3,29.76,WSW,238,0.0,0.0,45,0.00,,,0.00,WeatherCatV1.21B27,2013-08-28 05:23:00,
2013-08-27 22:28:00,71.5,47.8,29.76,WSW,237,1.0,1.0,43,0.00,,,0.00,WeatherCatV1.21B27,2013-08-28 05:28:00,
2013-08-27 22:33:00,71.4,47.7,29.76,East,98,0.0,1.0,43,0.00,,,0.00,WeatherCatV1.21B27,2013-08-28 05:33:00,
2013-08-27 22:38:00,71.3,47.6,29.76,East,94,1.0,1.0,43,0.00,,,0.00,WeatherCatV1.21B27,2013-08-28 05:38:00,
2013-08-27 22:43:00,71.1,48.1,29.76,East,87,0.0,1.0,44,0.00,,,0.00,WeatherCatV1.21B27,2013-08-28 05:43:00,
2013-08-27 22:45:00,71.0,48.0,29.76,East,95,0.0,0.0,44,0.00,,,0.00,WeatherCatV1.21B27,2013-08-28 05:45:00,
2013-08-27 22:50:00,71.0,48.0,29.76,East,93,0.0,1.0,44,0.00,,,0.00,WeatherCatV1.21B27,2013-08-28 05:50:00,
2013-08-27 22:55:00,71.0,48.0,29.76,East,93,0.0,1.0,44,0.00,,,0.00,WeatherCatV1.21B27,2013-08-28 05:55:00,
2013-08-27 23:00:00,71.0,48.0,29.76,East,93,0.0,1.0,44,0.00,,,0.00,WeatherCatV1.21B27,2013-08-28 06:00:00,
2013-08-27 23:05:00,71.0,48.0,29.76,East,93,0.0,1.0,44,0.00,,,0.00,WeatherCatV1.21B27,2013-08-28 06:05:00,
2013-08-27 23:10:00,71.0,48.0,29.76,East,93,0.0,1.0,44,0.00,,,0.00,WeatherCatV1.21B27,2013-08-28 06:10:00,
2013-08-27 23:15:00,71.0,48.0,29.76,East,93,0.0,1.0,44,0.00,,,0.00,WeatherCatV1.21B27,2013-08-28 06:15:00,
2013-08-27 23:20:00,71.0,48.0,29.76,East,93,0.0,1.0,44,0.00,,,0.00,WeatherCatV1.21B27,2013-08-28 06:20:00,
2013-08-27 23:25:00,71.0,48.0,29.76,East,93,0.0,1.0,44,0.00,,,0.00,WeatherCatV1.21B27,2013-08-28 06:25:00,
2013-08-27 23:30:00,71.0,48.0,29.76,East,93,0.0,1.0,44,0.00,,,0.00,WeatherCatV1.21B27,2013-08-28 06:30:00,
2013-08-27 23:35:00,71.0,48.0,29.76,East,93,0.0,1.0,44,0.00,,,0.00,WeatherCatV1.21B27,2013-08-28 06:35:00,
2013-08-27 23:40:00,70.1,48.3,29.76,East,90,0.0,2.0,46,0.00,,,0.00,WeatherCatV1.21B27,2013-08-28 06:40:00,
2013-08-27 23:45:00,70.1,48.3,29.76,East,90,0.0,2.0,46,0.00,,,0.00,WeatherCatV1.21B27,2013-08-28 06:45:00,
2013-08-27 23:50:00,70.1,48.3,29.76,East,90,0.0,2.0,46,0.00,,,0.00,WeatherCatV1.21B27,2013-08-28 06:50:00,
2013-08-27 23:55:00,70.1,48.3,29.76,East,90,0.0,2.0,46,0.00,,,0.00,WeatherCatV1.21B27,2013-08-28 06:55:00,